[[{"header":{"parameterUnit":"m.s-1","parameterCategory":1,"la1":30.2991,"la2":30.254,"lo1":-89.0895,"lo2":-89.0444,"dy":0.0017,"dx":0.0017,"nx":28,"ny":28,"refTime":"2025-03-30T09:00:00:Z","depth":0,"parameterNumber":2,"parameterNumberName":"U-component_of_WINDS"},"data":[0,0,0,0,0,0,0,0,0,0,0,0,0,0,0,0,0,0,0,0,0,0,0,0,0,0,0,0,0,0,0,0,0,0,0,0,0,0,0,0,0,0,0,0,0,0,0,0,0,0,0,0,0,0,0,0,0,0,0.9028,0.9028,0,0.9066,0.9067,0.9067,0.9047,0.9046,0.9045,0.9044,0.9086,0.9088,0.909,0,0,0,0,0,0,0,0,0,0,0,0,0,0.894,0.8942,0.9028,0.9028,0.9029,0.9066,0.9067,0.9067,0.9047,0.9046,0.9045,0.9044,0.9085,0.9088,0.909,0,0,0,0,0,0,0,0,0,0,0,0,0,0.8979,0.8943,0.9028,0.9023,0.9023,0.9066,0.9067,0.9067,0.9048,0.9046,0.9044,0.9043,0.9085,0.9088,0.9091,0.9141,0,0,0.91,0.9101,0,0,0,0,0,0,0,0,0.8976,0.8982,0.9024,0.9024,0.9024,0.905,0.9051,0.9092,0.9048,0.9038,0.9044,0.9042,0.9076,0.9079,0.909,0.9143,0.9145,0.91,0.9102,0.9104,0.9105,0,0,0,0,0,0,0,0.8974,0.898,0.9043,0.9024,0.9024,0.902,0.9024,0.9059,0.9065,0.9039,0.9038,0.9042,0.9075,0.9087,0.9091,0.9145,0.91,0.9103,0.9105,0.9106,0.9242,0.9244,0,0,0,0,0,0,0.8971,0.8978,0.9042,0.9044,0.8996,0.9023,0.9027,0.9043,0.9065,0.9067,0.9044,0.9041,0.9082,0.9087,0.9092,0.9153,0.9104,0.9107,0.9108,0.9241,0.9243,0.9245,0,0,0,0,0,0,0.8969,0.8977,0.904,0.9011,0.9018,0.9026,0.9044,0.9045,0.9057,0.9068,0.907,0.9054,0.9081,0.9088,0.9129,0.9154,0.9108,0.9111,0.9239,0.9241,0.9244,0.9275,0,0,0,0,0,0,0.8967,0.8976,0.8995,0.9011,0.902,0.9076,0.9046,0.9047,0.9062,0.9059,0.9079,0.908,0.9081,0.9124,0.9132,0.9158,0.9113,0.9236,0.924,0.9243,0.9272,0.9278,0.9284,0,0,0,0,0,0.8964,0.9002,0.8996,0.9004,0.9043,0.9077,0.9082,0.9081,0.9064,0.9083,0.9091,0.908,0.915,0.9129,0.9137,0.9164,0.9235,0.9239,0.9243,0.9269,0.9277,0.9284,0,0,0,0,0,0,0.8989,0.9004,0.8997,0.9042,0.9059,0.9074,0.9098,0.909,0.9112,0.9108,0.9107,0.9112,0.9154,0.9163,0.9139,0.9215,0.919,0.9196,0.9207,0.9215,0.9221,0.9218,0.9116,0,0,0,0,0,0.9,0.9026,0.9038,0.9076,0.9085,0.909,0.9105,0.9102,0.9119,0.9126,0.9137,0.9155,0.9181,0.9198,0.9223,0.9273,0.9278,0.9296,0.9302,0.9307,0.9312,0.934,0.9349,0.9257,0.9257,0.9257,0,0,0.9023,0.9034,0.9051,0.9082,0.9094,0.9121,0.9096,0.9126,0.9146,0.9131,0.9171,0.9179,0.9199,0.9245,0.9266,0.9254,0.9338,0.9312,0.9316,0.9318,0.9345,0.9354,0.9362,0.926,0.926,0.9259,0,0,0.9079,0.9089,0.9123,0.9136,0.9155,0.9158,0.9166,0.9182,0.9187,0.9227,0.9216,0.9241,0.9286,0.9301,0.9314,0.9376,0.9368,0.9384,0.9417,0.9444,0.9452,0.9458,0.9481,0.9489,0.9389,0.939,0.939,0,0.9105,0.9145,0.9142,0.9173,0.9187,0.9174,0.9209,0.9222,0.9248,0.9259,0.9245,0.9301,0.9314,0.9363,0.9378,0.9389,0.94,0.9382,0.9451,0.9457,0.9463,0.9485,0.9494,0.9392,0.9391,0.9391,0.9391,0,0.9177,0.9205,0.923,0.9255,0.9272,0.9305,0.9308,0.9326,0.9322,0.9327,0.9368,0.9383,0.9411,0.9422,0.9419,0.9472,0.9464,0.945,0.9426,0.9474,0.9495,0.9503,0.9394,0.9394,0.9393,0.9393,0,0,0.925,0.9273,0.9283,0.9294,0.9314,0.9336,0.9369,0.9395,0.9411,0.943,0.9458,0.9496,0.9484,0.9499,0.9498,0.9522,0.9571,0.9505,0.9506,0.9518,0.9632,0.9643,0.9653,0.9565,0.9567,0.9568,0.9631,0,0.9308,0.9364,0.9363,0.9415,0.9442,0.943,0.9458,0.9474,0.948,0.9504,0.9511,0.9538,0.9519,0.9529,0.9552,0.956,0.9594,0.9556,0.9593,0.9594,0.9589,0.9663,0.9675,0.9733,0.9639,0.964,0.9641,0,0.9383,0.9404,0.9459,0.9475,0.9487,0.9512,0.9537,0.9559,0.9578,0.958,0.9597,0.9592,0.9627,0.96,0.9649,0.9622,0.9638,0.9644,0.9646,0.9651,0.9621,0.9671,0.9751,0.9761,0.9654,0.9653,0.9652,0,0.9433,0.9474,0.9513,0.9523,0.9543,0.9561,0.9571,0.9587,0.9603,0.9625,0.9636,0.9662,0.9676,0.9697,0.9699,0.968,0.9748,0.9722,0.9753,0.9753,0.9768,0.9767,0.9854,0.9776,0.9776,0.9776,0.9776,0,0.9498,0.9533,0.9535,0.9559,0.9598,0.9596,0.9635,0.9642,0.9657,0.9683,0.9675,0.97,0.9701,0.9727,0.9729,0.9769,0.9776,0.978,0.978,0.9781,0.9781,0.9792,0.9788,0.9778,0.9778,0.9777,0.9777,0,0.956,0.9563,0.9604,0.962,0.9624,0.9652,0.9666,0.969,0.9694,0.9728,0.9735,0.9743,0.9773,0.9778,0.9813,0.9815,0.9863,0.9859,0.9857,0.9857,0.9888,0.9885,0.9985,0.9999,0.9911,0.9912,0.9913,0,0.9602,0.9628,0.9646,0.9663,0.9673,0.9699,0.9716,0.9715,0.9733,0.9756,0.9777,0.9806,0.9829,0.9878,0.9888,0.9915,0.9912,0.9945,0.9916,0.9917,0.9914,0.9913,0.9916,0.9951,0.9952,0.9953,0.9954,0,0.9677,0.9677,0.97,0.9725,0.9744,0.9764,0.9782,0.9796,0.9798,0.9819,0.9849,0.9867,0.9903,0.9933,0.996,0.997,0.9963,0.9962,0.9971,0.9973,0.9971,0.9974,0.9874,0.996,0.996,0.9959,0.9959,0.9959,0.9731,0.9754,0.977,0.9797,0.9811,0.9828,0.9851,0.9858,0.9883,0.9912,0.991,0.9944,0.9963,0.9998,1.0011,1.0038,1.0027,1.004,1.0043,1.0047,1.005,0.9966,1.0043,1.0043,1.0043,1.0042,1.0042,0,0.9806,0.9816,0.984,0.9866,0.9887,0.9877,0.9897,0.9916,0.9945,0.9963,0.9986,1.0021,1.005,1.0062,1.009,1.011,1.0107,1.0118,1.0117,1.012,1.0058,1.0048,1.0119,1.0119,1.0119,1.0119,1.0119,1.0119,0.9848,0.9886,0.9889,0.9935,0.9945,0.9977,0.9989,1.0006,1.002,1.0059,1.0083,1.009,1.0106,1.0135,1.0162,1.0165,1.0176,1.0188,1.019,1.0132,1.0124,1.0117,1.0107,1.019,1.019,1.025,1.025,1.0251]},{"header":{"parameterUnit":"m.s-1","parameterCategory":1,"la1":30.2991,"la2":30.254,"lo1":-89.0895,"lo2":-89.0444,"dy":0.0017,"dx":0.0017,"nx":28,"ny":28,"refTime":"2025-03-30T09:00:00:Z","depth":0,"parameterNumber":3,"parameterNumberName":"V-component_of_WINDS"},"data":[0,0,0,0,0,0,0,0,0,0,0,0,0,0,0,0,0,0,0,0,0,0,0,0,0,0,0,0,0,0,0,0,0,0,0,0,0,0,0,0,0,0,0,0,0,0,0,0,0,0,0,0,0,0,0,0,0,0,1.3306,1.3306,0,1.3299,1.3299,1.3299,1.3279,1.3278,1.3278,1.3277,1.3271,1.3271,1.3271,0,0,0,0,0,0,0,0,0,0,0,0,0,1.33,1.33,1.3306,1.3306,1.3305,1.3299,1.3299,1.3299,1.3279,1.3278,1.3278,1.3277,1.3271,1.3271,1.3271,0,0,0,0,0,0,0,0,0,0,0,0,0,1.3299,1.33,1.3306,1.3295,1.3293,1.3299,1.3299,1.3299,1.3279,1.3278,1.3277,1.3277,1.3271,1.3271,1.3271,1.3287,0,0,1.3272,1.3273,0,0,0,0,0,0,0,0,1.3299,1.3299,1.3296,1.3295,1.3294,1.3289,1.3295,1.3295,1.3279,1.3284,1.3277,1.3276,1.3277,1.3277,1.3277,1.3287,1.3287,1.3272,1.3273,1.3273,1.3273,0,0,0,0,0,0,0,1.3299,1.3299,1.3303,1.3296,1.3295,1.329,1.3289,1.3295,1.3285,1.3284,1.3282,1.3282,1.3277,1.3277,1.3277,1.3287,1.3272,1.3273,1.3273,1.3273,1.3309,1.331,0,0,0,0,0,0,1.3301,1.33,1.3303,1.3303,1.3295,1.329,1.3289,1.3291,1.3285,1.3283,1.3282,1.3281,1.3277,1.3277,1.3277,1.3295,1.3273,1.3273,1.3273,1.3308,1.3309,1.331,0,0,0,0,0,0,1.3301,1.3301,1.3303,1.3301,1.3301,1.3291,1.3294,1.3292,1.3292,1.3284,1.3282,1.3285,1.3276,1.3276,1.3285,1.3295,1.3273,1.3274,1.3307,1.3308,1.3309,1.3332,0,0,0,0,0,0,1.3301,1.3302,1.3308,1.3301,1.3301,1.3312,1.3294,1.3292,1.3293,1.3291,1.3285,1.3284,1.3276,1.3284,1.3285,1.3295,1.3274,1.3306,1.3308,1.3309,1.333,1.3333,1.3336,0,0,0,0,0,1.3301,1.3314,1.3308,1.3308,1.3308,1.3312,1.3312,1.3303,1.3294,1.3299,1.3294,1.3284,1.3293,1.3285,1.3286,1.3296,1.3306,1.3307,1.3309,1.3329,1.3333,1.3336,0,0,0,0,0,0,1.3322,1.3313,1.3306,1.3318,1.3316,1.3309,1.3316,1.3307,1.3308,1.3306,1.3294,1.3293,1.3303,1.33,1.3292,1.3311,1.3298,1.33,1.3313,1.3316,1.3319,1.332,1.3274,0,0,0,0,0,1.3328,1.3332,1.3324,1.3335,1.3335,1.3326,1.3327,1.332,1.3317,1.3316,1.3312,1.331,1.3312,1.3314,1.3316,1.333,1.3328,1.3337,1.334,1.3342,1.3344,1.3351,1.3355,1.3315,1.3315,1.3315,0,0,1.3341,1.3336,1.334,1.3339,1.3337,1.3342,1.3325,1.333,1.3334,1.3317,1.3325,1.3321,1.3318,1.333,1.3334,1.3327,1.3355,1.3344,1.3347,1.3347,1.3353,1.3357,1.336,1.3316,1.3316,1.3316,0,0,1.3366,1.3363,1.3372,1.337,1.3367,1.336,1.3363,1.3357,1.3354,1.3361,1.3349,1.3353,1.3357,1.3356,1.3355,1.338,1.3371,1.3381,1.3397,1.3404,1.3407,1.341,1.3419,1.3422,1.3383,1.3383,1.3383,0,1.3382,1.3388,1.3378,1.3384,1.3384,1.3369,1.3378,1.3377,1.3375,1.3375,1.3367,1.3373,1.337,1.338,1.3386,1.3387,1.3389,1.3382,1.3408,1.341,1.3413,1.3421,1.3424,1.3384,1.3384,1.3384,1.3384,0,1.3408,1.3412,1.342,1.3418,1.3419,1.3427,1.3417,1.342,1.3413,1.3407,1.3415,1.3411,1.3412,1.3414,1.3407,1.3423,1.3419,1.341,1.3396,1.3418,1.3426,1.3429,1.3386,1.3385,1.3385,1.3385,0,0,1.3446,1.3438,1.3441,1.344,1.3436,1.3439,1.3446,1.3446,1.3449,1.3447,1.3453,1.3457,1.3449,1.3448,1.3441,1.3447,1.3467,1.3437,1.3437,1.3443,1.3485,1.3492,1.3496,1.3461,1.3461,1.3462,1.3485,0,1.347,1.3482,1.3472,1.3485,1.3489,1.3476,1.3482,1.3479,1.3475,1.3477,1.3472,1.3475,1.3463,1.3463,1.3469,1.3463,1.3475,1.3461,1.3466,1.3466,1.3467,1.35,1.3508,1.353,1.3488,1.3489,1.3489,0,1.35,1.35,1.3513,1.3508,1.3509,1.3515,1.3514,1.3517,1.3514,1.351,1.351,1.3501,1.3508,1.3494,1.3503,1.3494,1.3495,1.3493,1.3493,1.3494,1.3479,1.3501,1.3537,1.3541,1.3494,1.3493,1.3493,0,1.3527,1.353,1.3538,1.3538,1.3532,1.3536,1.3533,1.353,1.3531,1.3531,1.3531,1.3532,1.3533,1.3533,1.3525,1.3516,1.3535,1.3521,1.3532,1.3532,1.3536,1.3536,1.3573,1.3537,1.3537,1.3537,1.3537,0,1.3554,1.3563,1.355,1.3556,1.3565,1.3554,1.3564,1.356,1.3557,1.3562,1.355,1.3554,1.3542,1.3545,1.3539,1.3547,1.3547,1.3544,1.3542,1.3545,1.3546,1.3546,1.3544,1.3538,1.3537,1.3537,1.3537,0,1.3586,1.3578,1.3586,1.3579,1.3578,1.3585,1.3579,1.3584,1.3578,1.3584,1.3585,1.3576,1.3579,1.3571,1.3572,1.3568,1.358,1.3575,1.3581,1.358,1.3591,1.359,1.363,1.3635,1.3595,1.3596,1.3596,0,1.3604,1.361,1.3604,1.3607,1.3605,1.3608,1.3609,1.3599,1.36,1.3598,1.3603,1.3605,1.3606,1.3611,1.3605,1.3606,1.3602,1.3616,1.3602,1.3605,1.3602,1.3602,1.3603,1.3619,1.3619,1.3619,1.362,0,1.3637,1.3633,1.3635,1.3635,1.3637,1.3637,1.3636,1.3638,1.3627,1.363,1.3633,1.3633,1.3635,1.3637,1.3637,1.3635,1.3626,1.3624,1.3627,1.363,1.3633,1.3632,1.3589,1.3623,1.3623,1.3623,1.3622,1.3622,1.3663,1.3668,1.3665,1.3667,1.3665,1.3665,1.3669,1.3664,1.3666,1.3667,1.366,1.3665,1.3662,1.3661,1.3659,1.3663,1.3656,1.366,1.3661,1.3662,1.3664,1.3632,1.3662,1.3662,1.3662,1.3662,1.3662,0,1.3696,1.3693,1.3695,1.3694,1.3696,1.3687,1.3686,1.3688,1.3692,1.369,1.3692,1.3695,1.3697,1.3691,1.3693,1.3696,1.3692,1.3697,1.3697,1.3696,1.367,1.3667,1.37,1.37,1.37,1.37,1.37,1.37,1.3713,1.3721,1.3716,1.3724,1.3721,1.3725,1.3725,1.3724,1.3723,1.3727,1.3729,1.3725,1.3722,1.3722,1.3724,1.3722,1.3723,1.373,1.3727,1.3702,1.3698,1.3695,1.3692,1.373,1.373,1.3753,1.3753,1.3753]}]]